Location: Aalen
(48.8330°N, 10.1000°E)
Time: 14:35:31
(UTC+02:00)

Explorer 7 - All Passes

Search period start: 04 August 2021 00:00
Search period end: 14 August 2021 00:00
Orbit: 484 x 676 km, 50.3° (Epoch: 04 August)

Date Brightness Start Highest point End Pass type
(mag) Time Alt. Az. Time Alt. Az. Time Alt. Az.
04 Aug - 04:12:18 10° SSE 04:13:56 12° SE 04:15:36 10° ESE visible
04 Aug - 05:50:00 10° SW 05:53:40 52° SSE 05:57:30 10° ENE daylight
04 Aug - 07:30:14 10° W 07:34:04 73° N 07:38:09 10° E daylight
04 Aug - 09:10:43 10° WNW 09:14:42 87° NNE 09:18:56 10° ESE daylight
04 Aug - 10:51:14 10° W 10:54:59 35° SSW 10:58:57 10° SSE daylight
05 Aug - 04:15:18 10° S 04:18:00 19° SE 04:20:45 10° E visible
05 Aug - 05:54:10 10° WSW 05:57:56 70° SSE 06:01:51 10° ENE daylight
05 Aug - 07:34:35 10° W 07:38:27 70° N 07:42:30 10° E daylight
05 Aug - 09:15:02 10° WNW 09:19:01 78° SSW 09:23:14 10° ESE daylight
05 Aug - 10:55:46 10° W 10:59:09 25° SW 11:02:42 10° SSE daylight
06 Aug - 04:18:53 10° SSW 04:22:06 28° SE 04:25:24 10° E visible
06 Aug - 05:58:26 10° WSW 06:02:14 88° SSE 06:06:11 10° ENE daylight
06 Aug - 07:38:57 10° W 07:42:49 71° N 07:46:53 10° E daylight
06 Aug - 09:19:23 10° WNW 09:23:17 60° SSW 09:27:27 10° SE daylight
06 Aug - 11:00:33 10° W 11:03:16 17° SW 11:06:04 10° S daylight
07 Aug - 04:22:45 10° SW 04:26:16 40° SSE 04:29:53 10° E visible
07 Aug - 06:02:46 10° W 06:06:34 79° N 06:10:31 10° ENE daylight
07 Aug - 07:43:18 10° WNW 07:47:11 78° NNE 07:51:15 10° E daylight
07 Aug - 09:23:45 10° W 09:27:32 44° SSW 09:31:33 10° SE daylight
07 Aug - 11:06:05 10° WSW 11:07:19 11° SW 11:08:33 10° SSW daylight
08 Aug - 02:48:46 10° SSE 02:50:42 14° SE 02:52:40 10° ESE visible
08 Aug - 04:26:50 10° SW 04:30:30 56° SSE 04:34:15 10° ENE visible
08 Aug - 06:07:08 10° W 06:10:55 71° N 06:14:52 10° E daylight
08 Aug - 07:47:37 10° WNW 07:51:31 90° S 07:55:36 10° ESE daylight
08 Aug - 09:28:11 10° W 09:31:44 31° SSW 09:35:28 10° SSE daylight
09 Aug - 02:51:56 10° S 02:54:47 21° SE 02:57:38 10° E visible
09 Aug - 04:31:02 10° WSW 04:34:46 75° SSE 04:38:36 10° ENE visible
09 Aug - 06:11:30 10° W 06:15:17 69° N 06:19:14 10° E daylight
09 Aug - 07:51:57 10° WNW 07:55:49 73° SSW 07:59:53 10° ESE daylight
09 Aug - 09:32:46 10° W 09:35:53 22° SW 09:39:07 10° SSE daylight
10 Aug - 02:55:36 10° SSW 02:58:55 30° SE 03:02:14 10° E visible
10 Aug - 04:35:19 10° WSW 04:39:04 88° NNW 04:42:55 10° ENE visible
10 Aug - 06:15:51 10° W 06:19:39 72° N 06:23:36 10° E daylight
10 Aug - 07:56:17 10° WNW 08:00:05 55° SSW 08:04:04 10° SE daylight
10 Aug - 09:37:41 10° WSW 09:39:58 15° SW 09:42:20 10° S daylight
11 Aug - 02:59:32 10° SW 03:03:05 43° SSE 03:06:41 10° E visible
11 Aug - 04:39:39 10° W 04:43:24 76° N 04:47:16 10° ENE visible
11 Aug - 06:20:12 10° WNW 06:24:00 80° NNE 06:27:57 10° E daylight
11 Aug - 08:00:40 10° W 08:04:19 39° SSW 08:08:07 10° SE daylight
12 Aug - 01:25:14 10° S 01:27:28 15° SE 01:29:42 10° ESE visible
12 Aug - 03:03:38 10° SW 03:07:20 60° SSE 03:11:03 10° ENE visible
12 Aug - 04:44:01 10° W 04:47:46 70° N 04:51:37 10° E visible
12 Aug - 06:24:31 10° WNW 06:28:19 86° SSW 06:32:17 10° ESE daylight
12 Aug - 08:05:08 10° W 08:08:30 28° SW 08:11:58 10° SSE daylight
13 Aug - 01:28:34 10° SSW 01:31:34 23° SE 01:34:33 10° E visible
13 Aug - 03:07:51 10° WSW 03:11:36 79° SSE 03:15:23 10° ENE visible
13 Aug - 04:48:22 10° W 04:52:08 69° N 04:55:58 10° E visible
13 Aug - 06:28:50 10° WNW 06:32:37 68° SSW 06:36:33 10° ESE daylight
13 Aug - 08:09:48 10° W 08:12:37 19° SW 08:15:31 10° S daylight
